Location: Aero Estates Airport (historical)
(33.2985°N, 96.8642°W)
Time: 01:58:12
(UTC+00:00)

Hubble Space Telescope - Visible Passes

Search period start: 19 January 2026 00:00
Search period end: 29 January 2026 00:00
Orbit: 479 x 481 km, 28.5° (Epoch: 18 January)

Date Brightness Start Highest point End Pass type
(mag) Time Alt. Az. Time Alt. Az. Time Alt. Az.
22 Jan 3.4 02:11:18 10° SW 02:11:52 13° SW 02:11:52 13° SW visible
23 Jan 2.3 01:41:31 10° SW 01:43:51 23° S 01:43:51 23° S visible
24 Jan 2.0 01:11:43 10° SW 01:14:51 25° SSE 01:15:49 22° SE visible
25 Jan 2.1 00:41:54 10° SW 00:45:03 25° SSE 00:47:45 12° ESE visible
25 Jan 3.4 02:21:00 10° WSW 02:21:53 16° WSW 02:21:53 16° WSW visible
26 Jan 2.2 00:12:05 10° SW 00:15:13 25° SSE 00:18:22 10° ESE visible
26 Jan 2.0 01:51:11 10° WSW 01:53:48 33° SW 01:53:48 33° SW visible
27 Jan 1.4 01:21:21 10° WSW 01:24:53 39° S 01:25:42 34° SSE visible
28 Jan 1.5 00:51:30 10° WSW 00:55:03 39° S 00:57:38 16° ESE visible
28 Jan 3.7 02:31:15 10° WSW 02:31:45 13° WSW 02:31:45 13° WSW visible
